Location: Newark
(52.3500°N, 175.9667°E)
Time: 22:56:43
(UTC+00:00)

Altair - Pass Details

Date: 27 April 2021
Orbit: 1501 x 1683 km, 47.2° (Epoch: 06 May)

Event Time Altitude Azimuth Distance (km) Brightness Sun altitude
Rises 22:03:49 0° 285° (WNW) 4,817 9.7 43.9°
Reaches altitude 10° 22:07:20 10° 277° (W) 3,801 9.3 44.3°
Maximum altitude 22:15:30 33° 218° (SW) 2,382 9.0 45.1°
Drops below altitude 10° 22:23:25 10° 159° (SSE) 3,678 10.4 45.9°
Sets 22:26:47 0° 150° (SSE) 4,641 10.7 46.3°
